User: anonymous
Location: Mt. Chestnut Observatory
(40.9038°N, 79.9956°W)
Time: 02:33:08
(UTC-04:00)
Language:

Cosmos 2034 Rocket - Orbit

View from above orbital plane
View from above orbital plane
View from above satellite
View from above satellite

Ground track
Ground track

The orbit data is extracted from the following two-line orbital elements,

1 20150U 89059B   14212.81615090  .00000082  00000-0  69258-4 0    62
2 20150 082.9420 154.0470 0028285 341.0660 047.7965 13.75582052255841
Epoch (UTC): 31 July 2014 19:35:15
Eccentricity: 0.0028285
inclination: 82.9420°
perigee height: 959 km
apogee height: 1000 km
right ascension of ascending node: 154.0470°
argument of perigee: 341.0660°
revolutions per day: 13.75582052
mean anomaly at epoch: 47.7965°
orbit number at epoch: 25584

The dashed part of the orbit path shows where the satellite is in the earth's shadow,  

DLR